FENGYUN 1C DEB, 37687

Orbit data source: Space-Track

FENGYUN 1C DEB, 37687 is space debris in SSO originally from a launch on Mon, 10 May 1999 UTC launched from the Taiyaun Space Center, China (TSC). Fengyun 1C debris stems from the Chinese weather satellite Fengyun-1C, which was intentionally destroyed by a Chinese anti-satellite missile in 2007. This event dramatically increased the amount of space debris, with thousands of trackable fragments posing hazards to satellites and human spaceflight. The Fengyun 1C debris cloud has become a focal point in discussions about space sustainability and the need for international regulations to prevent the creation of new debris.

Loading next visibility...
Identifier
37687, 1999-025ELC
Orbit
SSO
Country
Flag of CNCN / PRC
Related business
Manufacturer
Unknown
Mission
Spacecraft
Bus & Motor
Unknown
Mass
Unknown
Launch date (UTC)
1999-05-10 (27 years ago)
Launch vehicle
Unknown
Launch site
Taiyaun Space Center, China (TSC)
Object type
Payload
Rocket body
Debris
Shape & HBR
Unknown shape, 0.1 m
Radar Cross Section
Small (<0.1 m²)

Expand to show TLE details & history
Last TLE update: 2 weeks ago

TLE from 2 weeks ago
0 FENGYUN 1C DEB
1 37687U 99025ELC 26106.32266237  .00003052  00000-0  17261-2 0  9991
2 37687  98.1901 131.2673 0330364  15.4965   2.4696 13.86646661849806
Epoch: 2026-04-16T07:44Z
TLE epoch observation values (Epoch: 2026-04-16T07:44:38.028Z)
Latitude
17.9381°
Longitude
167.98094°
Altitude
701.148 km
Speed
7.63 km/s
True Right ascension
08h 34m 26s
True Declination
17° 50' 12"
Sunlit
Object was in daylight at epoch
Visualization orbit readout
Latitude
Unknown
Longitude
Unknown
Altitude
Unknown
Speed
Unknown
Apparent Right ascension
Unknown
Apparent Declination
Unknown
Sunlit
N/A
Visualization observer readout
Local Sidereal Time
07:59:54
Azimuth
Unknown
Elevation
Unknown
Doppler factor
Unknown
Orbital elements
Apogee altitude
1,179.266 km
Perigee altitude
695.896 km
Semi-major axis
7,315.718 km
Eccentricity
0.03304
Inclination
98.1901°
RAAN
131.2673°
Arg. of periapsis
15.4965°
True anomaly
2.63973°
Mean anomaly
2.4696°
Eccentric anomaly
2.55395°
Mean motion
3.46863 °/min
Orbital period
103.79 mins
BSTAR
0.0017261
Loading maneuver chart data...
Computing Atmospheric mass density...

Documentation

Showing up to 5 results
|